Simultaneous Nadir Overpasses (SNOs) Predictions

Prediction of SNOs between GOES-17 and METOP-C Satellite Orbit:

Table of predicted SNOs for the next 14.0 days since TLE Epoch: 7/22/2022
Index Date Time (GOES-17) GOES-17 Lat,Lon METOP-C Lat,Lon Distance(km) Time Diff (sec)
1 07/23/2022 06:27:33 -0.01,-137.29 0.74,-133.99 377.13 80
2 07/24/2022 18:43:45 0.00,-137.30 0.27,-138.55 142.70 80
3 07/25/2022 18:25:45 0.01,-137.30 -0.80,-133.55 426.33 80
4 07/27/2022 06:42:04 -0.00,-137.29 -0.20,-138.15 98.31 80
5 07/28/2022 06:24:05 -0.00,-137.28 0.93,-133.16 470.27 80
6 07/29/2022 18:40:17 -0.01,-137.28 0.08,-137.72 50.84 80
7 08/01/2022 06:38:36 0.02,-137.25 -0.00,-137.32 8.08 80
8 08/03/2022 18:39:29 -0.02,-137.23 -0.12,-136.90 38.39 80
9 08/05/2022 06:55:47 0.02,-137.20 -0.92,-141.49 487.95 80
